{"data":{"norad_id":50487,"epoch":"2026-09-19T21:16:26.096160Z","epoch_age_seconds":78847,"freshness":"FRESH","line1":"1 50487U 21132U   26262.88641315 -.00000074  00000+0 -22049-3 0  9999","line2":"2 50487  87.9165 316.6365 0001892  91.0492 269.0857 13.18687074234042","mean_motion":13.18687074,"eccentricity":0.0001892,"inclination_deg":87.9165,"raan_deg":316.6365,"arg_perigee_deg":91.0492,"mean_anomaly_deg":269.0857,"bstar":-0.00022049,"rev_number":23404,"period_min":109.19952340414,"perigee_km":1188.3071756351,"apogee_km":1191.1708599203,"semimajor_km":7567.8760177777,"source":"CELESTRAK","updated_at":"2026-09-20T09:00:44.703052Z"}}